Location: Unspecified
(35.7250°N, 0.0000°E)
Time: 12:47:58
(UTC+00:00)

Explorer 7 - Pass Details

Date: 23 August 2020
Orbit: 485 x 679 km, 50.3° (Epoch: 21 September)

Event Time Altitude Azimuth Distance (km) Brightness Sun altitude
Rises 19:43:44 0° 317° (NW) 2,677 11.7 -13.2°
Reaches altitude 10° 19:46:21 10° 332° (NNW) 1,752 10.2 -13.7°
Maximum altitude 19:49:33 23° 26° (NNE) 1,102 8.3 -14.3°
Enters shadow 19:51:31 16° 67° (ENE) 1,360 8.4 -14.7°
